Regional Weather Roundup
Issued by NWS Jackson, KY

Home | Current Version | Previous Version | Graphics & Text | Print | Product List | Glossary On
Versions: 1 2 3 4 5 6 7 8 9 10 11 12 13 14 15 16 17 18 19 20 21 22 23 24 25 26 27 28 29 30 31 32 33 34 35 36 37 38 39 40 41 42 43 44 45 46 47 48 49 50
000
ASUS43 KJKL 111519
RWRJKL

EAST KENTUCKY HOURLY WEATHER ROUNDUP
NATIONAL WEATHER SERVICE JACKSON KY
1100 AM EDT FRI JUL 11 2014

NOTE: "FAIR" INDICATES FEW OR NO CLOUDS BELOW 12,000 FEET WITH
NO SIGNIFICANT WEATHER AND/OR OBSTRUCTIONS TO VISIBILITY.

* THESE REPORTS ARE NOT UNDER NWS QUALITY CONTROL AND MAY NOT
  REPORT WEATHER SUCH AS PRECIPITATION AND FOG.

KYZ079-080-083-085-087-088-110-112-115-119-120-111600
...EASTERN KENTUCKY...

CITY           SKY/WX    TMP DP  RH WIND       PRES   REMARKS
JACKSON        SUNNY     77  64  64 CALM      30.25R
LONDON         SUNNY     82  65  56 VRB3      30.24R
SOMERSET*      SUNNY     81  61  50 E3        30.23S
MONTICELLO*    SUNNY     83  68  60 CALM      30.23S
MIDDLESBORO*   SUNNY     75  65  70 CALM      30.24S
HARLAN APT*    SUNNY     77  61  57 MISG      30.25S
BLACK MTN*       N/A     75  59  57 N3          N/A
PIKEVILLE APT* SUNNY     73  66  78 CALM      30.25R
BIG SANDY*     SUNNY     77  67  69 CALM      30.24S
MOREHEAD APT*    N/A     79  61  53 VRB6      30.25S
ASHLAND*       SUNNY     79  63  57 CALM      30.21
$$

KYZ035-036-041-042-044-050-067-078-099-111600
...CENTRAL KENTUCKY...

CITY           SKY/WX    TMP DP  RH WIND       PRES   REMARKS
MT STERLING*   SUNNY     79  63  57 CALM      30.24S
FLEMING/MASON* SUNNY     79  63  57 E6        30.23F
DANVILLE*      SUNNY     81  64  57 SE3       30.22F
RICHMOND*      MOSUNNY   82  59  44 S5        30.22S
LEXINGTON      SUNNY     81  62  52 CALM      30.22F
FRANKFORT      SUNNY     79  61  53 E3        30.21S
$$

KYZ091>093-OHZ055-061-077-WVZ005-015-034-035-042-111600
...SOUTHERN OHIO/WEST VIRGINIA...

CITY           SKY/WX    TMP DP  RH WIND       PRES   REMARKS
COVINGTON      MOSUNNY   79  58  48 SE5       30.22F
COLUMBUS       SUNNY     80  57  45 CALM      30.22F
DAYTON         MOSUNNY   77  61  57 E3        30.24S
WILMINGTON     SUNNY     75  62  64 SE5       30.23S
HUNTINGTON     SUNNY     78  63  59 SE6       30.22S
CHARLESTON     SUNNY     78  66  66 N5        30.22S
PINEVILLE*     SUNNY     80  67  63 MISG      30.30S
BECKLEY        SUNNY     77  58  51 VRB6      30.29R
BLUEFIELD      SUNNY     78  57  48 CALM      30.30S
$$

VAZ002-007-008-TNZ017-027-036-066-071-111600
...SOUTHWEST VIRGINIA/EAST TENNESSEE...

CITY           SKY/WX    TMP DP  RH WIND       PRES   REMARKS
WISE*          SUNNY     77  54  44 N7        30.30S
JONESVILLE*    SUNNY     79  64  61 CALM      30.25S
ABINGDON*      SUNNY     80  62  53 CALM      30.26S
BRISTOL        SUNNY     78  64  61 VRB3      30.24S
KNOXVILLE      MOSUNNY   81  67  62 VRB6      30.20S
OAK RIDGE      SUNNY     81  67  62 CALM      30.22S
CROSSVILLE     SUNNY     79  63  57 VRB6      30.26R
NASHVILLE      MOSUNNY   84  65  52 SE3       30.20R
$$

...KEY TO REMARKS...
VSB - VISIBILITY IN MILES
WCI - WIND CHILL INDEX
HX  - HEAT INDEX

$$


USA.gov is the U.S. government's official web portal to all federal, state and local government web resources and services.